Weather History for Marion, VA

Change the Weather History Date:

Wednesday, October 9, 2013

  Actual Average (KGEV) Record (KGEV)
Temperature  
Mean Temperature 54 °F -  
Max Temperature 67 °F 64 °F 77 °F (1990)
Min Temperature 41 °F 41 °F 20 °F (1987)
Degree Days  
Heating Degree Days 12    
Growing Degree Days 4 (Base 50)    
Moisture  
Dew Point 42 °F    
Average Humidity 73    
Maximum Humidity 100    
Minimum Humidity 28    
Precipitation  
Precipitation 0.00 in - - ()
Sea Level Pressure  
Sea Level Pressure 30.27 in    
Wind  
Wind Speed 3 mph (East)    
Max Wind Speed 9 mph    
Max Gust Speed -    
Visibility 10 miles    
Events      
Averages and records for this station are not official NWS values.
T = Trace of Precipitation, MM = Missing Value Source: NWS Daily Summary

Daily Weather History Graph

Daily Weather History Graph

Search for Another Location

Airport:

Trip Planner

Search our weather history database for the weather conditions in past years. The results will help you decide how hot, cold, wet, or windy it might be!

Date:

Astronomy

Oct. 09, 2013 Rise Set
Actual Time 7:27 AM EDT 6:56 PM EDT
Civil Twilight 7:01 AM EDT 7:22 PM EDT
Nautical Twilight 6:31 AM EDT 7:52 PM EDT
Astronomical Twilight 6:01 AM EDT 8:22 PM EDT
Moon 12:16 PM EDT (10/9) 10:35 PM EDT (10/9)
Length of Visible Light 12h 20m
Length of Day
11h 28m
Waxing Crescent, 25% of the Moon is Illuminated
Oct 9
Waxing Crescent
Oct 11
First Quarter
Oct 18
Full
Oct 26
Last Quarter
Nov 3
New

Hourly Weather History & Observations

Time (EDT) Temp. Windchill Dew Point Humidity Pressure Visibility Wind Dir Wind Speed Gust Speed Precip Events Conditions
12:15 AM 47.5 °F - 45.5 °F 93% 30.29 in 10.0 mi East 4.6 mph - N/A   Clear
12:35 AM 47.5 °F - 45.5 °F 93% 30.29 in 10.0 mi East 4.6 mph - N/A   Clear
12:55 AM 47.3 °F - 45.5 °F 93% 30.29 in 10.0 mi Calm Calm - N/A   Clear
1:15 AM 46.8 °F - 45.3 °F 95% 30.29 in 10.0 mi East 4.6 mph - N/A   Clear
1:35 AM 46.9 °F - 45.0 °F 93% 30.29 in 10.0 mi ESE 3.5 mph - N/A   Clear
1:55 AM 46.6 °F - 44.8 °F 93% 30.29 in 10.0 mi Calm Calm - N/A   Clear
2:15 AM 46.0 °F - 44.6 °F 95% 30.29 in 10.0 mi Calm Calm - N/A   Clear
2:35 AM 45.5 °F - 45.5 °F 100% 30.28 in 10.0 mi Calm Calm - N/A   Clear
2:55 AM 45.0 °F 43.5 °F 45.0 °F 100% 30.28 in 10.0 mi East 3.5 mph - N/A   Clear
3:15 AM 44.6 °F - 44.6 °F 100% 30.28 in 10.0 mi Calm Calm - N/A   Clear
3:35 AM 44.1 °F - 44.1 °F 100% 30.28 in 10.0 mi Calm Calm - N/A   Clear
3:55 AM 43.3 °F - 43.3 °F 100% 30.28 in 10.0 mi Calm Calm - N/A   Clear
4:15 AM 43.5 °F - 43.5 °F 100% 30.28 in 10.0 mi Calm Calm - N/A   Clear
4:35 AM 43.7 °F - 43.7 °F 100% 30.28 in 10.0 mi Calm Calm - N/A   Clear
4:55 AM 43.7 °F - 43.5 °F 99% 30.28 in 10.0 mi Calm Calm - N/A   Clear
5:15 AM 43.2 °F - 43.2 °F 100% 30.28 in 10.0 mi Calm Calm - N/A   Clear
5:35 AM 43.7 °F - 43.7 °F 100% 30.28 in 10.0 mi Calm Calm - N/A   Clear
5:55 AM 43.3 °F - 43.3 °F 100% 30.28 in 10.0 mi Calm Calm - N/A   Clear
6:15 AM 42.8 °F - 42.8 °F 100% 30.28 in 7.0 mi Calm Calm - N/A   Clear
6:35 AM 42.1 °F - 42.1 °F 100% 30.28 in 7.0 mi Calm Calm - N/A   Clear
6:55 AM 41.9 °F - 41.9 °F 100% 30.28 in 7.0 mi Calm Calm - N/A   Clear
7:15 AM 41.2 °F - 41.2 °F 100% 30.28 in 2.0 mi Calm Calm - N/A   Scattered Clouds
7:35 AM 41.7 °F - 41.7 °F 100% 30.28 in 5.0 mi Calm Calm - N/A   Clear
7:55 AM 41.9 °F - 41.9 °F 100% 30.29 in 5.0 mi Calm Calm - N/A   Clear
8:15 AM 41.9 °F - 41.9 °F 100% 30.30 in 2.5 mi Calm Calm - N/A   Clear
8:35 AM 44.6 °F - 44.6 °F 100% 30.30 in 10.0 mi Calm Calm - N/A   Clear
8:55 AM 48.6 °F - 46.8 °F 93% 30.31 in 10.0 mi East 4.6 mph - N/A   Clear
9:15 AM 51.8 °F - 48.4 °F 88% 30.32 in 10.0 mi East 5.8 mph - N/A   Clear
9:35 AM 52.9 °F - 46.9 °F 80% 30.33 in 10.0 mi East 5.8 mph - N/A   Clear
9:55 AM 53.6 °F - 46.6 °F 77% 30.33 in 10.0 mi ENE 8.1 mph - N/A   Clear
10:15 AM 55.2 °F - 46.4 °F 72% 30.34 in 10.0 mi East 8.1 mph - N/A   Scattered Clouds
10:35 AM 55.9 °F - 45.5 °F 68% 30.33 in 10.0 mi ENE 9.2 mph - N/A   Scattered Clouds
10:55 AM 56.5 °F - 44.6 °F 64% 30.34 in 10.0 mi East 8.1 mph - N/A   Clear
11:15 AM 57.4 °F - 43.3 °F 59% 30.33 in 10.0 mi ESE 6.9 mph - N/A   Clear
11:35 AM 59.0 °F - 44.8 °F 59% 30.32 in 10.0 mi East 9.2 mph - N/A   Clear
11:55 AM 60.1 °F - 43.5 °F 54% 30.32 in 10.0 mi East 9.2 mph - N/A   Clear
12:15 PM 60.6 °F - 42.1 °F 50% 30.32 in 10.0 mi ENE 8.1 mph - N/A   Clear
12:35 PM 61.5 °F - 42.1 °F 49% 30.31 in 10.0 mi ENE 5.8 mph - N/A   Clear
12:55 PM 61.9 °F - 40.8 °F 46% 30.30 in 10.0 mi ENE 6.9 mph - N/A   Clear
1:15 PM 63.0 °F - 39.6 °F 42% 30.29 in 10.0 mi East 5.8 mph - N/A   Clear
1:35 PM 63.7 °F - 39.0 °F 40% 30.28 in 10.0 mi East 4.6 mph - N/A   Clear
1:55 PM 64.9 °F - 35.4 °F 33% 30.27 in 10.0 mi ENE 9.2 mph - N/A   Clear
2:15 PM 64.8 °F - 36.3 °F 35% 30.26 in 10.0 mi East 5.8 mph - N/A   Clear
2:35 PM 65.5 °F - 36.0 °F 34% 30.25 in 10.0 mi East 4.6 mph - N/A   Clear
2:55 PM 66.2 °F - 32.9 °F 29% 30.24 in 10.0 mi East 5.8 mph - N/A   Clear
3:15 PM 66.6 °F - 32.0 °F 28% 30.24 in 10.0 mi East 6.9 mph - N/A   Clear
3:35 PM 66.6 °F - 33.3 °F 29% 30.23 in 10.0 mi East 8.1 mph - N/A   Clear
3:55 PM 66.6 °F - 36.0 °F 32% 30.23 in 10.0 mi ESE 6.9 mph - N/A   Clear
4:15 PM 66.6 °F - 36.3 °F 33% 30.23 in 10.0 mi East 5.8 mph - N/A   Clear
4:55 PM 66.2 °F - 36.7 °F 34% 30.23 in 10.0 mi ENE 8.1 mph - N/A   Clear
5:15 PM 65.5 °F - 36.3 °F 34% 30.23 in 10.0 mi ENE 8.1 mph - N/A   Clear
5:35 PM 64.6 °F - 35.1 °F 33% 30.23 in 10.0 mi ESE 6.9 mph - N/A   Clear
5:55 PM 64.2 °F - 34.5 °F 33% 30.24 in 10.0 mi East 6.9 mph - N/A   Clear
6:15 PM 63.0 °F - 38.1 °F 40% 30.23 in 10.0 mi East 5.8 mph - N/A   Clear
6:35 PM 61.7 °F - 38.3 °F 42% 30.23 in 10.0 mi East 4.6 mph - N/A   Clear
6:55 PM 59.7 °F - 39.9 °F 48% 30.23 in 10.0 mi East 3.5 mph - N/A   Clear
7:15 PM 56.5 °F - 42.3 °F 59% 30.23 in 10.0 mi Calm Calm - N/A   Clear
7:55 PM 53.8 °F - 42.8 °F 66% 30.24 in 10.0 mi Calm Calm - N/A   Clear
8:15 PM 52.7 °F - 43.5 °F 71% 30.24 in 10.0 mi Calm Calm - N/A   Clear
8:35 PM 50.9 °F - 44.2 °F 78% 30.24 in 10.0 mi Calm Calm - N/A   Clear
8:55 PM 49.6 °F - 43.2 °F 78% 30.24 in 10.0 mi Calm Calm - N/A   Clear
9:15 PM 49.1 °F - 43.9 °F 82% 30.25 in 10.0 mi Calm Calm - N/A   Clear
9:35 PM 49.1 °F - 43.0 °F 79% 30.25 in 10.0 mi Calm Calm - N/A   Clear
9:55 PM 48.4 °F - 42.8 °F 81% 30.25 in 10.0 mi Calm Calm - N/A   Clear
10:15 PM 48.2 °F - 42.8 °F 82% 30.25 in 10.0 mi Calm Calm - N/A   Clear
10:35 PM 46.4 °F - 43.2 °F 88% 30.25 in 10.0 mi Calm Calm - N/A   Clear
10:55 PM 46.4 °F - 42.3 °F 85% 30.25 in 10.0 mi Calm Calm - N/A   Clear
11:15 PM 45.9 °F - 42.4 °F 88% 30.24 in 10.0 mi Calm Calm - N/A   Clear
11:35 PM 46.6 °F - 42.6 °F 86% 30.24 in 10.0 mi Calm Calm - N/A   Clear
11:55 PM 46.0 °F - 42.1 °F 86% 30.24 in 10.0 mi Calm Calm - N/A   Clear